This is the latest recevied weather packets stored in our database for station/object KC3WWU. If no packets are shown the sender has not sent any weather packets the latest 10 day(s).
| Time | Temp. | Humidity | Pressure | Rain* | Wind** | Luminosity | Snow |
|---|---|---|---|---|---|---|---|
| 1777299992 | 13.89° C | 65% | 1021.7 hPa | 0 mm | - | 506 W/m² | - |
| 1777299688 | 13.89° C | 66% | 1021.8 hPa | 0 mm | - | 492 W/m² | - |
| 1777299386 | 13.89° C | 65% | 1021.6 hPa | 0 mm | - | 479 W/m² | - |
| 1777299084 | 13.89° C | 66% | 1021.7 hPa | 0 mm | - | 466 W/m² | - |
| 1777298781 | 13.33° C | 70% | 1021.8 hPa | 0 mm | - | 419 W/m² | - |
| 1777298477 | 13.33° C | 72% | 1021.8 hPa | 0 mm | - | 439 W/m² | - |
| 1777298174 | 13.33° C | 76% | 1021.8 hPa | 0 mm | - | 428 W/m² | - |
| 1777297869 | 12.78° C | 77% | 1021.9 hPa | 0 mm | - | 412 W/m² | - |
| 1777297567 | 12.22° C | 77% | 1021.6 hPa | 0 mm | - | 393 W/m² | - |
| 1777297263 | 11.67° C | 75% | 1021.6 hPa | 0 mm | - | 393 W/m² | - |
| 1777296960 | 12.22° C | 80% | 1021.8 hPa | 0 mm | - | 394 W/m² | - |
| 1777296658 | 11.67° C | 80% | 1021.7 hPa | 0 mm | - | 355 W/m² | - |
| 1777296339 | 11.67° C | 81% | 1021.9 hPa | 0 mm | - | 374 W/m² | - |
| 1777296039 | 11.11° C | 81% | 1021.7 hPa | 0 mm | - | 353 W/m² | - |
| 1777295737 | 9.44° C | 95% | 1021.9 hPa | 0 mm | - | 267 W/m² | - |
| 1777295434 | 8.33° C | 99% | 1022 hPa | 0 mm | - | 228 W/m² | - |
| 1777295131 | 7.78° C | 99% | 1021.9 hPa | 0 mm | - | 230 W/m² | - |
| 1777294828 | 7.78° C | 99% | 1021.7 hPa | 0 mm | - | 127 W/m² | - |
| 1777294523 | 7.22° C | 99% | 1021.9 hPa | 0 mm | - | 105 W/m² | - |
| 1777294220 | 6.67° C | 99% | 1021.8 hPa | 0 mm | - | 113 W/m² | - |
| 1777293917 | 6.11° C | 99% | 1021.9 hPa | 0 mm | - | 49 W/m² | - |
| 1777293613 | 5.56° C | 99% | 1022 hPa | 0 mm | - | 62 W/m² | - |
| 1777293308 | 5° C | 99% | 1021.7 hPa | 0 mm | - | 61 W/m² | - |
| 1777293004 | 4.44° C | 99% | 1021.6 hPa | 0 mm | - | 74 W/m² | - |
| 1777292703 | 3.89° C | 99% | 1021.8 hPa | 0 mm | - | 48 W/m² | - |
* Rain latest hour (hover to see other rain measurements)
** Current wind speed in m/s (hover to see current wind gust speed)